TimeCST,TemperatureF,Dew PointF,Humidity,Sea Level PressureIn,VisibilityMPH,Wind Direction,Wind SpeedMPH,Gust SpeedMPH,PrecipitationIn,Events,Conditions,WindDirDegrees,DateUTC
12:46 AM,66.2,60.8,83,29.94,7.0,Calm,Calm,-,N/A,,Partly Cloudy,0,2013-02-21 06:46:00
1:44 AM,66.2,59.0,78,29.92,7.0,Calm,Calm,-,N/A,,Partly Cloudy,0,2013-02-21 07:44:00
2:40 AM,66.2,60.8,83,29.94,7.0,Calm,Calm,-,N/A,,Partly Cloudy,0,2013-02-21 08:40:00
3:43 AM,66.2,60.8,83,29.91,7.0,ESE,3.5,-,N/A,,Partly Cloudy,120,2013-02-21 09:43:00
5:13 AM,66.2,60.8,83,29.92,7.0,ESE,3.5,-,N/A,,Partly Cloudy,120,2013-02-21 11:13:00
5:49 AM,66.2,60.8,83,29.89,7.0,SE,3.5,-,N/A,,Partly Cloudy,130,2013-02-21 11:49:00
6:40 AM,66.2,60.8,83,29.94,8.0,Calm,Calm,-,N/A,,Partly Cloudy,0,2013-02-21 12:40:00
7:40 AM,71.6,66.2,83,29.96,8.0,ESE,8.1,-,N/A,,Scattered Clouds,120,2013-02-21 13:40:00
8:42 AM,77.0,66.2,69,30.01,8.0,ESE,17.3,-,N/A,,Scattered Clouds,120,2013-02-21 14:42:00
9:44 AM,80.6,68.0,65,29.99,8.0,SE,13.8,-,N/A,,Scattered Clouds,130,2013-02-21 15:44:00
10:40 AM,80.6,64.4,58,29.99,8.0,SE,13.8,-,N/A,,Mostly Cloudy,130,2013-02-21 16:40:00
11:41 AM,82.4,64.4,54,29.95,8.0,SE,16.1,-,N/A,,Mostly Cloudy,130,2013-02-21 17:41:00
12:40 PM,82.4,64.4,54,29.95,8.0,ESE,16.1,-,N/A,,Mostly Cloudy,120,2013-02-21 18:40:00
1:42 PM,80.6,62.6,54,29.92,8.0,ESE,15.0,-,N/A,,Mostly Cloudy,120,2013-02-21 19:42:00
2:47 PM,82.4,62.6,51,29.93,8.0,SE,13.8,-,N/A,,Scattered Clouds,140,2013-02-21 20:47:00
3:55 PM,80.6,62.6,54,29.90,8.0,SE,11.5,-,N/A,,Scattered Clouds,140,2013-02-21 21:55:00
4:42 PM,78.8,62.6,57,29.90,8.0,ESE,13.8,-,N/A,,Scattered Clouds,120,2013-02-21 22:42:00
5:42 PM,77.0,62.6,61,29.89,8.0,SE,9.2,-,N/A,,Scattered Clouds,130,2013-02-21 23:42:00
6:53 PM,73.4,62.6,69,29.93,7.0,ESE,3.5,-,N/A,,Scattered Clouds,120,2013-02-22 00:53:00
7:42 PM,73.4,62.6,69,29.94,7.0,ESE,4.6,-,N/A,,Scattered Clouds,120,2013-02-22 01:42:00
8:41 PM,71.6,62.6,73,29.97,7.0,ESE,4.6,-,N/A,,Scattered Clouds,120,2013-02-22 02:41:00
9:48 PM,71.6,62.6,73,29.96,7.0,SE,4.6,-,N/A,,Scattered Clouds,130,2013-02-22 03:48:00
10:47 PM,69.8,60.8,73,29.96,7.0,SE,3.5,-,N/A,,Scattered Clouds,130,2013-02-22 04:47:00
11:40 PM,71.6,64.4,78,29.92,7.0,ESE,5.8,-,N/A,,Partly Cloudy,120,2013-02-22 05:40:00